Location: Unspecified
(0.0000°N, 0.0000°E)
Time: 10:44:20
(UTC+00:00)

Vanguard 3 - Pass Details

Date: 26 September 2023
Orbit: 507 x 3241 km, 33.3° (Epoch: 06 December)

Event Time Altitude Azimuth Distance (km) Brightness Sun altitude
Rises 02:18:55 0° 328° (NNW) 2,613 - -53.1°
Reaches altitude 10° 02:21:11 10° 343° (NNW) 1,816 - -52.6°
Maximum altitude 02:24:31 25° 41° (NE) 1,305 - -51.7°
Drops below altitude 10° 02:28:56 10° 96° (E) 2,463 - -50.6°
Exits shadow 02:29:42 - 99° (E) 2,740 10.4 -50.5°
Sets 02:32:34 0° 108° (ESE) 3,820 11.2 -49.7°
